Back to catalog

STARLINK-32083

AliveCommunicationsVLEO
NORAD 60343·PAYLOAD·🇺🇸 United States

Launched Aug 2, 2024 from Cape Canaveral Space Force Station

Loading…

Next Passes (next 24 hours)

TLE

FreshSource: CelesTrak SupGP

Epoch: Sep 14, 2026, 14:12 UTC

1 60343C 24136Q   26257.59215278  .00016791  00000+0  49618-3 0  2574
2 60343  53.1585 277.5882 0001199  71.6017 337.7928 15.34376178    11

Track STARLINK-32083 in real time with AllMySat

Download on the App Store